Powrót do katalogu

NO-44

PCSAT

AktywnyKrótkofalarstwoLEO
NORAD 26931·PAYLOAD·🇺🇸 United States

Wystrzelony Sep 30, 2001 z Kodiak Launch Complex

Loading…

Następne Przeloty (najbliższe 24 godziny)

TLE

ŚwieżeSource: AMSAT

Epoka: Sep 13, 2026, 17:20 UTC

1 26931U 01043C   26256.72239409  .00000058  00000-0  52735-4 0  9995
2 26931  67.0528  15.2724 0005736 272.4834  87.5611 14.31983338303123

Śledź NO-44 w czasie rzeczywistym z AllMySat

Download on the App Store